Weather History for LGKZ - September, 2013

Change the Weather History Date:

Wednesday, September 25, 2013

  Actual Average Record
Temperature  
Mean Temperature 68 °F -  
Max Temperature 84 °F - - ()
Min Temperature 53 °F - - ()
Cooling Degree Days 4    
Growing Degree Days 18 (Base 50)    
Moisture  
Dew Point 38 °F    
Average Humidity 37    
Maximum Humidity 62    
Minimum Humidity 13    
Precipitation  
Precipitation 0.00 in - - ()
Sea Level Pressure  
Sea Level Pressure 30.04 in    
Wind  
Wind Speed 4 mph ()    
Max Wind Speed 7 mph    
Max Gust Speed -    
T = Trace of Precipitation, MM = Missing Value Source: Averaged Metar Reports

Daily Weather History Graph

Daily Weather History Graph

Search for Another Location

Airport or City:

Trip Planner

Search our weather history database for the weather conditions in past years. The results will help you decide how hot, cold, wet, or windy it might be!

Date:

Astronomy

Sep. 25, 2013 Rise Set
Actual Time 7:23 AM EEST 7:24 PM EEST
Civil Twilight 6:55 AM EEST 7:51 PM EEST
Nautical Twilight 6:24 AM EEST 8:23 PM EEST
Astronomical Twilight 5:52 AM EEST 8:55 PM EEST
Moon 11:15 PM EEST (9/25) 1:13 PM EEST (9/25)
Length of Visible Light 12h 55m
Length of Day
12h 01m
Waning Gibbous, 67% of the Moon is Illuminated
Sep 25
Waning Gibbous
Sep 27
Last Quarter
Oct 5
New
Oct 12
First Quarter
Oct 19
Full

Hourly Weather History & Observations

Time (EEST) Temp. Dew Point Humidity Pressure Visibility Wind Dir Wind Speed Gust Speed Precip Events Conditions
12:20 AM 62.6 °F 41.0 °F 45% 30.01 in - WSW 6.9 mph - N/A   Unknown
12:50 AM 60.8 °F 41.0 °F 48% 30.01 in - WSW 5.8 mph - N/A   Unknown
1:20 AM 59.0 °F 41.0 °F 51% 30.04 in - Variable 3.5 mph - N/A   Unknown
1:50 AM 60.8 °F 41.0 °F 48% 30.04 in - WSW 4.6 mph - N/A   Unknown
2:20 AM 59.0 °F 41.0 °F 51% 30.04 in - Variable 1.2 mph - N/A   Unknown
2:50 AM 59.0 °F 41.0 °F 51% 30.04 in - Variable 3.5 mph - N/A   Unknown
3:20 AM 57.2 °F 41.0 °F 55% 30.04 in - WSW 6.9 mph - N/A   Unknown
3:50 AM 57.2 °F 39.2 °F 51% 30.04 in - WSW 5.8 mph - N/A   Unknown
4:20 AM 57.2 °F 39.2 °F 51% 30.04 in - WSW 5.8 mph - N/A   Unknown
4:50 AM 55.4 °F 41.0 °F 58% 30.04 in - WSW 5.8 mph - N/A   Unknown
5:50 AM 57.2 °F 41.0 °F 55% 30.04 in - Variable 3.5 mph - N/A   Unknown
6:20 AM 57.2 °F 41.0 °F 55% 30.04 in - WSW 4.6 mph - N/A   Unknown
6:50 AM 55.4 °F 41.0 °F 58% 30.04 in - WSW 4.6 mph - N/A   Unknown
7:20 AM 53.6 °F 39.2 °F 58% 30.04 in - WSW 5.8 mph - N/A   Unknown
7:50 AM 53.6 °F 41.0 °F 62% 30.04 in - WSW 5.8 mph - N/A   Unknown
8:20 AM 57.2 °F 41.0 °F 55% 30.04 in - WSW 4.6 mph - N/A   Unknown
8:50 AM 60.8 °F 42.8 °F 52% 30.04 in - Variable 2.3 mph - N/A   Unknown
9:20 AM 64.4 °F 42.8 °F 45% 30.04 in - Variable 3.5 mph - N/A   Unknown
9:50 AM 66.2 °F 42.8 °F 43% 30.06 in - WSW 4.6 mph - N/A   Unknown
10:20 AM 66.2 °F 42.8 °F 43% 30.06 in - WSW 4.6 mph - N/A   Unknown
10:50 AM 69.8 °F 42.8 °F 38% 30.06 in - WSW 4.6 mph - N/A   Unknown
11:20 AM 69.8 °F 41.0 °F 35% 30.06 in - WSW 4.6 mph - N/A   Unknown
11:50 AM 71.6 °F 41.0 °F 33% 30.06 in - WSW 5.8 mph - N/A   Unknown
12:20 PM 73.4 °F 41.0 °F 31% 30.06 in - WSW 4.6 mph - N/A   Unknown
12:50 PM 77.0 °F 39.2 °F 26% 30.06 in - WSW 4.6 mph - N/A   Unknown
1:20 PM 78.8 °F 37.4 °F 23% 30.06 in - WSW 4.6 mph - N/A   Unknown
1:50 PM 80.6 °F 30.2 °F 16% 30.04 in - WSW 5.8 mph - N/A   Unknown
2:20 PM 82.4 °F 30.2 °F 15% 30.04 in - WSW 4.6 mph - N/A   Unknown
2:50 PM 84.2 °F 30.2 °F 14% 30.04 in - WSW 4.6 mph - N/A   Unknown
3:20 PM 82.4 °F 30.2 °F 15% 30.04 in - WSW 4.6 mph - N/A   Unknown
3:50 PM 82.4 °F 28.4 °F 14% 30.01 in - WSW 5.8 mph - N/A   Unknown
4:20 PM 84.2 °F 28.4 °F 13% 30.01 in - WSW 5.8 mph - N/A   Unknown
4:50 PM 84.2 °F 28.4 °F 13% 30.01 in - WSW 5.8 mph - N/A   Unknown
5:20 PM 84.2 °F 28.4 °F 13% 30.01 in - WSW 4.6 mph - N/A   Unknown
5:50 PM 82.4 °F 28.4 °F 14% 30.01 in - WSW 4.6 mph - N/A   Unknown
6:20 PM 82.4 °F 28.4 °F 14% 30.01 in - WSW 5.8 mph - N/A   Unknown
6:50 PM 78.8 °F 33.8 °F 20% 30.01 in - WSW 4.6 mph - N/A   Unknown
7:20 PM 77.0 °F 35.6 °F 22% 30.01 in - Variable 3.5 mph - N/A   Unknown
7:50 PM 71.6 °F 39.2 °F 31% 30.01 in - WSW 6.9 mph - N/A   Unknown
8:20 PM 68.0 °F 37.4 °F 33% 30.01 in - Variable 1.2 mph - N/A   Unknown
8:50 PM 68.0 °F 37.4 °F 33% 30.04 in - Variable 2.3 mph - N/A   Unknown
9:20 PM 68.0 °F 37.4 °F 33% 30.04 in - Variable 3.5 mph - N/A   Unknown
9:50 PM 64.4 °F 37.4 °F 37% 30.04 in - Variable 2.3 mph - N/A   Unknown
10:20 PM 64.4 °F 39.2 °F 40% 30.04 in - Variable 2.3 mph - N/A   Unknown
10:50 PM 64.4 °F 39.2 °F 40% 30.04 in - Variable 3.5 mph - N/A   Unknown
11:20 PM 64.4 °F 39.2 °F 40% 30.04 in - Variable 3.5 mph - N/A   Unknown
11:50 PM 62.6 °F 39.2 °F 42% 30.04 in - WSW 4.6 mph - N/A   Unknown